This is the latest recevied weather packets stored in our database for station/object W8KHW. If no packets are shown the sender has not sent any weather packets the latest 10 day(s).
| Time | Temp. | Humidity | Pressure | Rain* | Wind** | Luminosity | Snow |
|---|---|---|---|---|---|---|---|
| 1777733889 | 7.78° C | 61% | 1018.4 hPa | 0 mm | - | - | - |
| 1777733388 | 8.33° C | 62% | 1018.4 hPa | 0 mm | - | - | - |
| 1777732888 | 8.33° C | 64% | 1018.4 hPa | 0 mm | - | - | - |
| 1777732388 | 7.78° C | 65% | 1018.4 hPa | 0 mm | - | - | - |
| 1777731887 | 7.78° C | 64% | 1018.4 hPa | 0 mm | - | - | - |
| 1777731387 | 7.78° C | 64% | 1018.2 hPa | 0 mm | - | - | - |
| 1777730887 | 7.78° C | 68% | 1018.5 hPa | 0 mm | - | - | - |
| 1777730387 | 7.22° C | 67% | 1018.3 hPa | 0 mm | - | - | - |
| 1777729886 | 7.22° C | 72% | 1018.4 hPa | 0 mm | - | - | - |
| 1777729386 | 6.67° C | 73% | 1018.4 hPa | 0 mm | - | - | - |
| 1777728886 | 6.11° C | 72% | 1018.4 hPa | 0 mm | - | - | - |
| 1777728386 | 5.56° C | 73% | 1018.2 hPa | 0 mm | - | - | - |
| 1777727885 | 6.11° C | 74% | 1018.2 hPa | 0 mm | - | - | - |
| 1777727385 | 5.56° C | 75% | 1018.2 hPa | 0 mm | - | - | - |
| 1777726885 | 5.56° C | 75% | 1018.2 hPa | 0 mm | - | - | - |
| 1777726385 | 5° C | 76% | 1018 hPa | 0 mm | - | - | - |
| 1777725884 | 5° C | 75% | 1018.2 hPa | 0 mm | - | - | - |
| 1777725384 | 4.44° C | 78% | 1018.1 hPa | 0 mm | - | - | - |
| 1777724884 | 3.89° C | 79% | 1017.9 hPa | 0 mm | - | - | - |
| 1777724384 | 2.78° C | 84% | 1018 hPa | 0 mm | - | - | - |
| 1777723883 | 2.22° C | 92% | 1017.9 hPa | 0 mm | - | - | - |
| 1777723383 | 1.67° C | 98% | 1017.8 hPa | 0 mm | - | - | - |
| 1777722883 | 1.67° C | 99% | 1017.7 hPa | 0 mm | - | - | - |
| 1777722383 | 1.67° C | 99% | 1017.8 hPa | 0 mm | - | - | - |
| 1777721883 | 1.11° C | 99% | 1017.7 hPa | 0 mm | - | - | - |
* Rain latest hour (hover to see other rain measurements)
** Current wind speed in m/s (hover to see current wind gust speed)